This is the latest recevied weather packets stored in our database for station/object KG5MMT-12. If no packets are shown the sender has not sent any weather packets the latest 10 day(s).
| Time | Temp. | Humidity | Pressure | Rain* | Wind** | Luminosity | Snow |
|---|---|---|---|---|---|---|---|
| 1788499742 | 18.33° C | 64% | 0 hPa | 0 mm | - | - | - |
| 1788499442 | 18.33° C | 62% | 0 hPa | 0 mm | - | - | - |
| 1788499142 | 18.33° C | 65% | 0 hPa | 0 mm | - | - | - |
| 1788498842 | 18.89° C | 64% | 0 hPa | 0 mm | - | - | - |
| 1788498542 | 18.89° C | 64% | 0 hPa | 0 mm | - | - | - |
| 1788498242 | 18.89° C | 64% | 0 hPa | 0 mm | - | - | - |
| 1788497942 | 18.89° C | 63% | 0 hPa | 0 mm | - | - | - |
| 1788497642 | 18.89° C | 63% | 0 hPa | 0 mm | - | - | - |
| 1788497342 | 18.89° C | 62% | 0 hPa | 0 mm | - | - | - |
| 1788497042 | 18.89° C | 63% | 0 hPa | 0 mm | - | - | - |
| 1788496742 | 18.89° C | 61% | 0 hPa | 0 mm | - | - | - |
| 1788496442 | 19.44° C | 61% | 0 hPa | 0 mm | - | - | - |
| 1788496142 | 19.44° C | 60% | 0 hPa | 0 mm | - | - | - |
| 1788495842 | 19.44° C | 61% | 0 hPa | 0 mm | - | - | - |
| 1788495542 | 19.44° C | 58% | 0 hPa | 0 mm | - | - | - |
| 1788495242 | 19.44° C | 57% | 0 hPa | 0 mm | - | - | - |
| 1788494942 | 20° C | 56% | 0 hPa | 0 mm | - | - | - |
| 1788494642 | 20° C | 54% | 0 hPa | 0 mm | - | - | - |
| 1788494342 | 20° C | 55% | 0 hPa | 0 mm | - | - | - |
| 1788494042 | 20° C | 54% | 0 hPa | 0 mm | - | - | - |
| 1788493742 | 18.89° C | 57% | 0 hPa | 0 mm | - | - | - |
| 1788493442 | 18.33° C | 59% | 0 hPa | 0 mm | - | - | - |
| 1788493142 | 18.33° C | 62% | 0 hPa | 0 mm | - | - | - |
| 1788492842 | 18.33° C | 63% | 0 hPa | 0 mm | - | - | - |
| 1788492542 | 18.33° C | 62% | 0 hPa | 0 mm | - | - | - |
* Rain latest hour (hover to see other rain measurements)
** Current wind speed in m/s (hover to see current wind gust speed)